When you browse on this site, cookies collect data to enhance your experience and personalize the content and advertising you see.
Visit our Privacy Policy to learn more. By continuing to use the site, you agree to this use of cookies and data.
  • In Latvia
  • List of Countries
  • For 7 days
  • Water Temperature
  • Weather Map
  • Weather Widgets
  • user-avatar
    Login

    Hourly Weather Kloten

    Today, 23 September, Monday

    Time Temperature Precipitation Wind Pressure Humidity
    00:00 +15°C° 0.4 mm 4 mps 719 mmHg 85%
    01:00 +14°C° 0 mm 5 mps 720 mmHg 93%
    02:00 +14°C° 1.4 mm 4 mps 720 mmHg 94%
    03:00 +13°C° 1.4 mm 3 mps 719 mmHg 95%
    04:00 +14°C° 1.4 mm 2 mps 719 mmHg 96%
    05:00 +13°C° 0.5 mm 2 mps 720 mmHg 96%
    06:00 +13°C° 0.5 mm 1 mps 720 mmHg 96%
    07:00 +13°C° 0.5 mm 1 mps 720 mmHg 96%
    08:00 +14°C° 0.6 mm 1 mps 721 mmHg 95%
    09:00 +14°C° 0.6 mm 1 mps 721 mmHg 93%
    10:00 +14°C° 0.6 mm 2 mps 722 mmHg 91%
    11:00 +15°C° 0.2 mm 2 mps 722 mmHg 85%
    12:00 +16°C° 0.2 mm 2 mps 722 mmHg 79%
    13:00 +18°C° 0.2 mm 2 mps 722 mmHg 73%
    14:00 +18°C° 0 mm 2 mps 722 mmHg 69%
    15:00 +18°C° 0 mm 2 mps 722 mmHg 65%
    16:00 +19°C° 0 mm 2 mps 722 mmHg 60%
    17:00 +18°C° 0 mm 1 mps 722 mmHg 69%
    18:00 +15°C° 0 mm 1 mps 722 mmHg 78%
    19:00 +13°C° 0 mm 1 mps 722 mmHg 87%
    20:00 +12°C° 0 mm 1 mps 722 mmHg 89%
    21:00 +12°C° 0 mm 1 mps 722 mmHg 91%
    22:00 +10°C° 0 mm 0 mps 722 mmHg 93%
    23:00 +10°C° 0 mm 0 mps 722 mmHg 94%

    Tomorrow, 24 September, Tuesday

    Time Temperature Precipitation Wind Pressure Humidity
    00:00 +10°C° 0 mm 0 mps 722 mmHg 94%
    01:00 +9°C° 0 mm 0 mps 722 mmHg 94%
    02:00 +9°C° 0 mm 0 mps 722 mmHg 95%
    03:00 +9°C° 0 mm 0 mps 722 mmHg 95%
    04:00 +8°C° 0 mm 0 mps 721 mmHg 95%
    05:00 +8°C° 0 mm 0 mps 721 mmHg 95%
    06:00 +8°C° 0 mm 0 mps 721 mmHg 94%
    07:00 +9°C° 0 mm 0 mps 720 mmHg 94%
    08:00 +11°C° 0 mm 0 mps 720 mmHg 86%
    09:00 +13°C° 0 mm 0 mps 720 mmHg 79%
    10:00 +15°C° 0 mm 0 mps 720 mmHg 71%
    11:00 +18°C° 0 mm 1 mps 719 mmHg 69%
    12:00 +18°C° 0 mm 1 mps 719 mmHg 66%
    13:00 +18°C° 0 mm 2 mps 719 mmHg 64%
    14:00 +18°C° 0 mm 1 mps 719 mmHg 69%
    15:00 +16°C° 0 mm 1 mps 719 mmHg 74%
    16:00 +14°C° 0 mm 0 mps 718 mmHg 79%
    17:00 +15°C° 0.3 mm 1 mps 718 mmHg 83%
    18:00 +14°C° 0.3 mm 1 mps 718 mmHg 86%
    19:00 +13°C° 0.3 mm 1 mps 719 mmHg 90%
    20:00 +13°C° 0.4 mm 1 mps 719 mmHg 91%
    21:00 +13°C° 0.4 mm 1 mps 719 mmHg 93%
    22:00 +13°C° 0.4 mm 1 mps 719 mmHg 95%
    23:00 +13°C° 0.2 mm 1 mps 718 mmHg 94%

    Day after tomorrow, 25 September, Wednesday

    Time Temperature Precipitation Wind Pressure Humidity
    00:00 +13°C° 0.2 mm 1 mps 718 mmHg 94%
    01:00 +13°C° 0.2 mm 1 mps 718 mmHg 94%
    02:00 +13°C° 0.1 mm 1 mps 718 mmHg 94%
    03:00 +13°C° 0.1 mm 1 mps 718 mmHg 95%
    04:00 +13°C° 0.1 mm 1 mps 718 mmHg 95%
    05:00 +13°C° 0.1 mm 1 mps 718 mmHg 95%
    06:00 +13°C° 0.1 mm 1 mps 718 mmHg 95%
    07:00 +13°C° 0.1 mm 1 mps 718 mmHg 95%
    08:00 +14°C° 0.1 mm 2 mps 718 mmHg 90%
    09:00 +13°C° 0.1 mm 3 mps 719 mmHg 84%
    10:00 +14°C° 0.1 mm 4 mps 719 mmHg 79%
    11:00 +15°C° 0.1 mm 4 mps 719 mmHg 71%
    12:00 +17°C° 0.1 mm 4 mps 719 mmHg 62%
    13:00 +19°C° 0.1 mm 4 mps 719 mmHg 53%
    14:00 +18°C° 0.2 mm 4 mps 719 mmHg 59%
    15:00 +17°C° 0.2 mm 3 mps 719 mmHg 65%
    16:00 +17°C° 0.2 mm 3 mps 719 mmHg 71%
    17:00 +15°C° 0.1 mm 2 mps 719 mmHg 75%
    18:00 +14°C° 0.1 mm 2 mps 719 mmHg 78%
    19:00 +12°C° 0.1 mm 1 mps 719 mmHg 82%
    20:00 +12°C° 0 mm 1 mps 720 mmHg 83%
    21:00 +13°C° 0 mm 1 mps 720 mmHg 84%
    22:00 +13°C° 0 mm 1 mps 721 mmHg 84%
    23:00 +12°C° 0 mm 1 mps 720 mmHg 86%

    26 September, Thursday

    Time Temperature Precipitation Wind Pressure Humidity
    00:00 +12°C° 0 mm 1 mps 720 mmHg 88%
    01:00 +12°C° 0 mm 1 mps 720 mmHg 89%
    02:00 +12°C° 0 mm 1 mps 721 mmHg 89%
    03:00 +12°C° 0 mm 1 mps 721 mmHg 88%
    04:00 +12°C° 0 mm 2 mps 721 mmHg 87%
    05:00 +12°C° 0.2 mm 2 mps 721 mmHg 89%
    06:00 +12°C° 0.2 mm 2 mps 721 mmHg 90%
    07:00 +12°C° 0.2 mm 2 mps 721 mmHg 91%
    08:00 +13°C° 0.1 mm 2 mps 722 mmHg 89%
    09:00 +14°C° 0.1 mm 2 mps 722 mmHg 86%
    10:00 +15°C° 0.1 mm 2 mps 723 mmHg 84%
    11:00 +16°C° 0 mm 2 mps 723 mmHg 79%
    12:00 +17°C° 0 mm 2 mps 723 mmHg 74%
    13:00 +18°C° 0 mm 2 mps 723 mmHg 69%
    14:00 +19°C° 0 mm 2 mps 723 mmHg 68%
    15:00 +19°C° 0 mm 2 mps 723 mmHg 68%
    16:00 +20°C° 0 mm 2 mps 723 mmHg 67%
    17:00 +19°C° 0 mm 1 mps 723 mmHg 74%
    18:00 +18°C° 0 mm 1 mps 723 mmHg 81%
    19:00 +14°C° 0 mm 0 mps 723 mmHg 88%
    20:00 +14°C° 0 mm 0 mps 723 mmHg 90%
    21:00 +13°C° 0 mm 0 mps 723 mmHg 92%
    22:00 +12°C° 0 mm 0 mps 723 mmHg 95%
    23:00 +12°C° 0 mm 0 mps 723 mmHg 94%

    27 September, Friday

    Time Temperature Precipitation Wind Pressure Humidity
    00:00 +13°C° 0 mm 1 mps 723 mmHg 94%
    01:00 +13°C° 0 mm 1 mps 723 mmHg 94%
    02:00 +13°C° 0 mm 1 mps 723 mmHg 93%
    03:00 +13°C° 0 mm 1 mps 723 mmHg 93%
    04:00 +13°C° 0 mm 1 mps 723 mmHg 92%
    05:00 +13°C° 0 mm 1 mps 722 mmHg 92%
    06:00 +13°C° 0 mm 1 mps 722 mmHg 91%
    07:00 +13°C° 0 mm 1 mps 722 mmHg 91%
    08:00 +15°C° 0 mm 1 mps 722 mmHg 84%
    09:00 +18°C° 0 mm 1 mps 722 mmHg 77%
    10:00 +20°C° 0 mm 1 mps 723 mmHg 70%
    11:00 +20°C° 0 mm 2 mps 722 mmHg 66%
    12:00 +20°C° 0 mm 2 mps 722 mmHg 63%
    13:00 +21°C° 0 mm 3 mps 722 mmHg 59%
    14:00 +21°C° 0.1 mm 3 mps 722 mmHg 60%
    15:00 +21°C° 0.1 mm 3 mps 722 mmHg 60%
    16:00 +21°C° 0.1 mm 3 mps 722 mmHg 61%
    17:00 +19°C° 0.1 mm 2 mps 722 mmHg 69%
    18:00 +18°C° 0.1 mm 1 mps 722 mmHg 78%
    19:00 +15°C° 0.1 mm 1 mps 722 mmHg 86%
    20:00 +15°C° 0.2 mm 1 mps 722 mmHg 88%
    21:00 +15°C° 0.2 mm 1 mps 722 mmHg 91%
    22:00 +14°C° 0.2 mm 1 mps 722 mmHg 93%
    23:00 +14°C° 0.5 mm 1 mps 722 mmHg 94%

    28 September, Saturday

    Time Temperature Precipitation Wind Pressure Humidity
    00:00 +14°C° 0.5 mm 1 mps 722 mmHg 95%
    01:00 +14°C° 0.5 mm 1 mps 722 mmHg 96%
    02:00 +14°C° 0.4 mm 1 mps 722 mmHg 96%
    03:00 +14°C° 0.4 mm 1 mps 722 mmHg 95%
    04:00 +14°C° 0.4 mm 1 mps 722 mmHg 95%
    05:00 +13°C° 0.1 mm 1 mps 722 mmHg 95%
    06:00 +13°C° 0.1 mm 1 mps 722 mmHg 94%
    07:00 +13°C° 0.1 mm 1 mps 722 mmHg 94%
    08:00 +13°C° 0 mm 2 mps 723 mmHg 90%
    09:00 +14°C° 0 mm 2 mps 723 mmHg 86%
    10:00 +13°C° 0 mm 3 mps 723 mmHg 83%
    11:00 +14°C° 0 mm 3 mps 723 mmHg 77%
    12:00 +14°C° 0 mm 3 mps 723 mmHg 72%
    13:00 +16°C° 0 mm 3 mps 723 mmHg 67%
    14:00 +16°C° 0 mm 3 mps 723 mmHg 66%
    15:00 +16°C° 0 mm 3 mps 723 mmHg 65%
    16:00 +17°C° 0 mm 2 mps 722 mmHg 64%
    17:00 +16°C° 0 mm 2 mps 723 mmHg 68%
    18:00 +14°C° 0 mm 1 mps 723 mmHg 72%
    19:00 +13°C° 0 mm 1 mps 723 mmHg 76%
    20:00 +12°C° 0 mm 1 mps 723 mmHg 79%
    21:00 +12°C° 0 mm 1 mps 723 mmHg 82%
    22:00 +11°C° 0 mm 1 mps 723 mmHg 86%
    23:00 +10°C° 0 mm 1 mps 723 mmHg 88%
    Show more